Location: Bakov nad Jizerou
(50.4784°N, 14.9394°E)
Time: 23:36:08
(UTC+00:00)

Cosmos 2322 Rocket - Pass Details

Date: 16 June 2021
Orbit: 833 x 851 km, 71.0° (Epoch: 23 July)

Event Time Altitude Azimuth Distance (km) Brightness Sun altitude
Rises 21:45:54 0° 243° (WSW) 3,409 5.3 -14.3°
Reaches altitude 10° 21:48:38 10° 253° (WSW) 2,478 4.6 -14.4°
Maximum altitude 21:53:38 31° 315° (NW) 1,458 4.1 -14.6°
Drops below altitude 10° 21:58:41 10° 17° (NNE) 2,489 5.6 -14.9°
Sets 22:01:27 0° 28° (NNE) 3,427 6.2 -15.0°
